indice_tiempo,indice_total,indice_industria,indice_construccion,indice_comercio_servicios
2001-08-01,100.0,100.0,100.0,100.0
2001-09-01,99.05889715132611,98.70761073677234,97.05617715864463,99.3334810955696
2001-10-01,98.38384680721565,97.59207319675555,96.16609785869794,98.7823979091433
2001-11-01,97.91567697346481,96.83704960379174,95.46881554454758,98.42725431629201
2001-12-01,96.72961409982113,95.58555795606287,90.40158244102614,97.54014051832146
2002-01-01,95.07693029784595,94.24700738586345,83.24686613734328,96.19021081168032
2002-02-01,93.85676961022331,93.39537780105144,74.47905523824221,95.35574416139426
2002-03-01,92.90847459171668,92.49356884135076,69.95379665168018,94.60175170721251
2002-04-01,92.13104392321148,91.71930658304679,68.35693295823943,93.87598871001754
2002-05-01,91.35181848919682,91.1944769164583,65.07634458699516,93.16783561059479
2002-06-01,90.80307062647289,91.04659592777537,61.50507408229857,92.65882958819455
2002-07-01,90.42616557902548,90.88009912885624,59.638061266736,92.28542909658314
2002-08-01,90.22144837353042,91.17493290223062,58.79002341266408,91.93737391876547
2002-09-01,89.94059353307016,91.1023607107833,58.186920357104974,91.59324620683475
2002-10-01,90.15511444791345,91.41126500896625,57.917132021968705,91.7902435419785
2002-11-01,90.39930872264404,91.79768024005823,60.060490726820824,91.84131112094741
2002-12-01,90.72144678171131,92.27494704575857,59.798379740717756,92.14862736489337
2003-01-01,90.81372412087318,92.60939586968927,61.14388703703394,92.05930881665721
2003-02-01,90.9371336957403,92.91012687730469,62.98186978485586,91.97546949136482
2003-03-01,91.31028256892652,93.88315507375597,65.00802263338544,92.01144192621891
2003-04-01,91.46614179585261,94.1773927238388,63.98509361520381,92.21315882867754
2003-05-01,91.66693965629656,94.47789236873801,64.7586874644248,92.31221172954189
2003-06-01,91.8341723337838,95.20560578670032,65.22516758197051,92.1212628191186
2003-07-01,92.60362753039603,95.78706731962518,68.37366789158419,92.80808446802835
2003-08-01,92.97407452144135,96.18194754684745,71.21015380524575,93.00571205832145
2003-09-01,93.76664428281711,97.44272519261956,72.02721242456538,93.57423453753951
2003-10-01,94.35098534783569,98.71809814900544,72.77495175747208,93.82077301162134
2003-11-01,95.23411817239307,99.75819088483665,75.45761567999185,94.4778295954445
2003-12-01,96.00079826749673,101.28810052524167,73.62242826972036,94.99009619105335
2004-01-01,96.28096118876803,102.09028515764138,72.84683255402093,95.06778352082533
2004-02-01,96.82416711950336,102.8135477877862,74.79427896550284,95.38082558805382
2004-03-01,97.45202154508716,103.62261437543235,76.19248901646638,95.88659880114939
2004-04-01,97.59904952181458,104.16446217869162,74.31277898758584,96.04447645570654
2004-05-01,97.93093461455022,104.63983229603603,73.20202161636041,96.4486359683818
2004-06-01,98.51831313929851,105.00617946541811,73.10592414849937,97.16425614198256
2004-07-01,98.91287900013904,105.383734669335,73.37185580184956,97.56866788032791
2004-08-01,99.49618537415253,105.94541942901753,72.71699306451026,98.25968081546283
2004-09-01,100.08468398092077,107.0580950215407,75.25500703946929,98.44614043181012
2004-10-01,100.7721749209584,107.87040632174133,76.33869722588899,99.05792281622459
2004-11-01,101.78394508955381,108.83310646584168,78.03874641713917,100.10589976309416
2004-12-01,102.49515115213003,109.71155942172426,79.4923337050123,100.78767343148573
2005-01-01,102.69219023150131,110.41872135974114,79.93517743734625,100.84983125812512
2005-02-01,103.35951027013411,110.94139146902168,83.9775760981232,101.20857216003006
2005-03-01,104.83255590186566,111.95125878256067,88.84615675756937,102.4763157953352
2005-04-01,105.91681281941968,112.65414151424046,91.7041563743006,103.48365746722176
2005-05-01,106.74802053397195,112.92911833233772,94.80243631990017,104.18317522221734
2005-06-01,107.28473911991074,113.02694066277377,96.40506392169317,104.71012028286171
2005-07-01,107.85210512897407,113.6164177522443,96.22059418154991,105.34091017280419
2005-08-01,109.05373288714223,115.13875731672157,99.68353968893594,106.16946667892744
2005-09-01,110.34898261177742,116.91190799604996,103.93077420749958,106.976157999835
2005-10-01,110.95523274956265,117.78313120869593,103.59377170876989,107.58814003711787
2005-11-01,112.4242689356436,119.07170575423926,107.68772815887344,108.84598741049662
2005-12-01,112.66764195758023,119.51664433113889,106.63770098160974,109.14956061092029
2006-01-01,113.06036462779308,119.54059100869202,107.71740663767153,109.58739726427866
2006-02-01,113.56532602126983,120.04515391225107,107.57253728204971,110.15720230613675
2006-03-01,114.41450404623964,121.15687899771065,110.46788224330652,110.71892813958566
2006-04-01,115.14867606102645,121.18781554654888,113.71637922074957,111.43137731602648
2006-05-01,115.59597742636268,121.43799640009006,115.75872880304561,111.81616434797778
2006-06-01,115.72731630435875,121.58167564409284,116.26171124525662,111.91352506395987
2006-07-01,116.12848828669266,122.14995532620883,115.89292909718667,112.32559737805687
2006-08-01,116.60228059545354,122.67080670672112,116.93311950244694,112.73564613350402
2006-09-01,117.2793204618536,123.34545399614491,117.95229020113432,113.37269176851748
2006-10-01,118.05534761972557,123.82374401245332,119.30569089897669,114.17593681692942
2006-11-01,118.98063314238136,124.72767566990125,123.11151769659135,114.81015652170906
2006-12-01,119.37446053211261,124.87502855490666,122.52447877675348,115.36775289608606
2007-01-01,119.7810871224298,125.2655388682023,124.1313042617181,115.63277873335163
2007-02-01,120.3114837357847,125.83817471540507,125.95594666700754,116.00025462958374
2007-03-01,121.01700086728701,126.284362869637,127.6969754024158,116.6591779710636
2007-04-01,121.34596190501746,126.57392716903853,128.09269232761545,116.9841817670877
2007-05-01,122.10997015336599,127.70314759204162,129.36643015546628,117.5604680094223
2007-06-01,122.60658596520597,128.37132979733363,130.7248576994024,117.91260897588343
2007-07-01,123.19090777380507,128.7939521386316,130.54081557218183,118.63427160077387
2007-08-01,123.4417204227677,129.2217326342816,129.25417377353202,118.95663930455139
2007-09-01,124.03361028950295,130.3011955043681,128.20132973463222,119.59139006477008
2007-10-01,124.94867934345099,131.8389122776188,128.94445223153062,120.34364569015248
2007-11-01,126.0299680749907,132.87454611166825,129.17535773695826,121.50770167019041
2007-12-01,125.84132538303497,132.3460317616263,125.3355560877639,121.84058291872451
2008-01-01,126.2176778994865,132.339318159686,126.73850111701078,122.22812450564226
2008-02-01,126.83319023042078,133.67611994483332,128.88389839046508,122.47014985030533
2008-03-01,127.16019637719741,133.13563834672985,131.29874105271668,122.7918378362908
2008-04-01,128.11128781073373,133.5298454560642,133.10474377217247,123.8002764155972
2008-05-01,128.86006959108744,134.01743248875238,133.7988905732488,124.63078553872381
2008-06-01,129.08997059530662,134.7215446002145,133.1202982882842,124.82242115443181
2008-07-01,129.58289895768263,134.94247003134836,133.4005959271571,125.49484278876308
2008-08-01,129.65353712008954,135.10541676182933,133.62086809819942,125.511695529622
2008-09-01,129.8442639342964,135.16830143528637,133.53245539930225,125.791370961195
2008-10-01,129.57022654805118,135.1538002254312,129.70518409874532,125.79778910967968
2008-11-01,129.00655843176634,134.37493317871005,128.48234355895806,125.36292613672316
2008-12-01,128.19087089487962,133.9179682760282,122.80160536040258,124.97068030223949
2009-01-01,127.59706844167113,133.71347181713296,124.03005001464875,124.04612901857024
2009-02-01,127.29734726970314,132.7772369603219,124.30525510839198,123.9194951514299
2009-03-01,126.68976447686141,131.89868903769226,121.82348727737629,123.62045552762014
2009-04-01,126.4000294577877,131.52106002698534,120.69825758700043,123.46100801974268
2009-05-01,126.04024063095815,131.21986302889775,117.98712436893828,123.341768406134
2009-06-01,125.90222173224255,131.21411405048744,116.99139094912518,123.25523765174674
2009-07-01,126.04942400004238,131.2342882034513,117.45229172791548,123.40563115023066
2009-08-01,125.92442955489969,131.54244535474504,116.2103588229429,123.24388503509707
2009-09-01,126.03876820349062,131.92091241912652,117.34773795437381,123.16537449738033
2009-10-01,126.58551536489225,132.683546504224,120.04471142761975,123.37527863298529
2009-11-01,126.81598728953956,133.1622141164069,118.60161744726527,123.6939195949275
2009-12-01,126.72524352945625,133.1177450920472,116.39543064123554,123.8504625340945
2010-01-01,127.20013876528958,133.31807316055932,119.17372853582297,124.13215825410622
2010-02-01,127.76719556420855,133.68417315765927,121.31522570397452,124.59494086037996
2010-03-01,128.08527214275733,134.2231056649189,122.49215846731,124.74675861095272
2010-04-01,128.62559983239765,135.05507625753222,122.740448157405,125.23842818373932
2010-05-01,128.80088620883893,134.9094161311824,121.40610802070435,125.72438423477386
2010-06-01,129.43102268019845,135.6939360145254,121.9062719874595,126.34674480397716
2010-07-01,129.5002293898252,135.4783482686277,120.14987044209988,126.76342225019005
2010-08-01,129.93252314502354,136.2716162361283,118.57733136940189,127.35964126144098
2010-09-01,130.53070941932074,136.79503940061073,119.37740888230178,128.00977137253992
2010-10-01,130.8649346911769,137.55947474733378,117.7284216112038,128.4397891368675
2010-11-01,131.4886492793889,138.3165283175955,117.79712778999162,129.12765144866214
2010-12-01,131.50274900531403,138.65504650730003,115.50082909811923,129.37834077674066
2011-01-01,131.79994093171464,138.5971988229105,116.35484769203445,129.70293486581454
2011-02-01,132.60887005689108,138.50736258170426,119.02591841847595,130.51204439916532
2011-03-01,132.75474576498834,138.0606807798746,119.95214836523134,130.7824202301212
2011-04-01,132.88062559015924,138.23456864398617,120.5274247201871,130.83280962683313
2011-05-01,133.27316676636903,138.26423724966946,122.28302503746299,131.12992843724493
2011-06-01,133.62946560630792,138.31125218615145,121.08984108940923,131.80150789514627
2011-07-01,134.16787321638637,138.79009781399478,120.70179955233041,132.48192411468227
2011-08-01,134.41881869729892,139.83832008800525,119.63890035287474,132.6100014211248
2011-09-01,134.91153104502348,140.9207361081407,119.7929461596177,132.93523401128192
2011-10-01,135.26581768179005,141.06576418204438,118.24546906053047,133.5902808452154
2011-11-01,135.7983174740054,141.78967156744136,119.44037478741188,133.99248339204962
2011-12-01,135.7703852852579,141.77834334452012,114.97106930179578,134.50986626588036
2012-01-01,135.39987104303665,141.4247228516238,117.24128916980868,133.76793552162124
2012-02-01,135.3144760634064,141.19605528117302,117.98179389532513,133.60694203697076
2012-03-01,135.35381374288755,140.82701410825246,115.18954537784023,134.20149413925196
2012-04-01,135.08529549889417,140.56275952921004,114.29661352111802,134.04968415136685
2012-05-01,134.7023584895356,140.24605947225876,112.88367490512033,133.79104710280805
2012-06-01,134.66194113130558,140.22415373556774,112.45528503274969,133.79848469887335
2012-07-01,134.2669127531123,140.20367582858705,110.03535287758007,133.57653401680633
2012-08-01,133.8403028109444,139.87630139216924,108.48823042332627,133.26451547948557
2012-09-01,133.91262408865242,140.533270995544,107.3419318264193,133.2826941425855
2012-10-01,133.8447245648851,141.27566653705702,106.61644891979243,133.03484167889482
2012-11-01,134.240556603392,142.1858628785258,106.44248075513472,133.3441302576061
2012-12-01,133.85686732681992,141.96841487731433,102.60460602668817,133.4548369111207
2013-01-01,134.14067005407088,142.01491377139797,105.426076872746,133.4206973284519
2013-02-01,134.31540962207288,141.76330024273852,106.57566564357487,133.5837874521731
2013-03-01,134.11517686358437,141.59835754561942,104.1566559068906,133.68966193321458
2013-04-01,134.09431196672747,140.75235891491576,105.00103254023486,133.80295085288012
2013-05-01,133.6819393835472,139.8526700039777,104.25965895577413,133.62556084365764
2013-06-01,133.79062088100594,140.3625338947753,103.44600946617318,133.7455451018007
2013-07-01,134.5880789143454,141.59407708315817,103.89357792502094,134.44055063244684
2013-08-01,134.20104893623613,142.0453086444813,100.80878837070641,134.25134986197997
2013-09-01,134.42364633657513,142.28024344440368,101.4495812835455,134.38883805628953
2013-10-01,134.6743231307429,142.46312034086523,100.74430743203007,134.82898406191504
2013-11-01,135.1829227909159,143.00283572405323,100.80873801867256,135.3932990977343
2013-12-01,134.95744591365207,143.2493075678544,98.18451428619736,135.46851637541627
2014-01-01,135.01998056470893,143.05781471540615,98.64691502672393,135.54191544309415
2014-02-01,134.8847524370292,142.4148206524141,98.8693481714838,135.5108283994716
2014-03-01,134.80092518976397,141.89400653843748,98.60199288727303,135.60904781708936
2014-04-01,134.69351055406352,141.37967006795563,99.17342313122403,135.52447278599928
2014-05-01,134.35045559233657,140.67197816259429,99.0565571523288,135.27555409607274
2014-06-01,134.5761817308071,140.66585176756163,100.04749128815756,135.42591584467442
2014-07-01,134.43497182220463,140.6821126329489,98.6673873532449,135.49086116040573
2014-08-01,134.28010916274488,140.44280996301416,97.86150500129688,135.51831932250676
2014-09-01,134.38165705726666,140.2492345655088,97.92649686966885,135.72509536058703
2014-10-01,134.40399488251737,140.87374696681655,98.19517546797516,135.4764656762016
2014-11-01,134.55612585277953,141.13890432032,98.30295017989721,135.59844794553428
2014-12-01,134.34172368973103,141.15038991694075,96.0500868244627,135.6696561662491
2015-01-01,134.76002813183774,141.55370233970277,97.78072858804383,135.8462526559962
2015-02-01,134.59416128384956,141.56537771851802,97.08819606453865,135.71258694564384
2015-03-01,134.44272362859104,141.1333391675672,94.54710733854586,136.06369717030944
2015-04-01,134.20460304519898,141.39259670578343,92.63236739533102,135.94122549776563
2015-05-01,134.45089327367998,141.52006568590298,93.09261620143825,136.18852996252562
2015-06-01,134.58359104151202,141.6781750956629,93.42697816955346,136.27485477346204
2015-07-01,134.96401268904367,142.1629271399848,93.79839527462563,136.61108358071135
2015-08-01,135.0635063952626,142.3922639166426,92.40973656816249,136.91176117093906
2015-09-01,135.292033233447,142.3866609109089,91.48671429389768,137.4242719484342
2015-10-01,135.4542541929089,142.9502499437557,90.40968543045466,137.66111614384346
2015-11-01,135.55291434301003,142.5293584219701,89.18238771684845,138.13124732935376
2015-12-01,134.99325091095554,142.3598583328154,85.54975041707628,137.94877382644268
2016-01-01,135.3271402114498,142.07394189737818,87.36469428886143,138.23518895472645
2016-02-01,135.40614087478065,141.73975783133002,85.95490761965742,138.7116332773433
2016-03-01,135.11369697925704,140.937639508429,84.48871331437512,138.80065955652552
2016-04-01,134.80289184339767,140.02081098147002,83.49011838278962,138.79952158602106
2016-05-01,134.49284341428202,139.1105291867427,83.37456848446224,138.6747016672587
2016-06-01,134.32330660529897,138.3758863594155,83.33084145130638,138.6966178076178
2016-07-01,134.3995318601432,137.57540519441326,83.61735264870006,138.99831305113796
2016-08-01,134.16627301639386,137.32296807532737,83.80965210380386,138.70299612712301
2016-09-01,134.33877481958567,137.18739246323506,84.5307782886744,138.86413473712426
2016-10-01,134.48078650813807,137.08533653293637,84.6159115276928,139.104144153531
2016-11-01,134.83899730814224,136.24315065750778,85.18036279836046,139.7952008439532
2016-12-01,134.3303304042748,135.56222022632397,82.06244254929099,139.83325686158204
2017-01-01,134.90867148118227,135.50266620322287,84.9978108772658,140.1503879574997
2017-02-01,135.19133722999877,135.30096325958647,86.30784042686089,140.401834577239
2017-03-01,135.26157646710226,134.69837121867076,87.91375171396737,140.4481691513761
2017-04-01,135.30547918322821,134.1912037410333,88.8883257783926,140.5189954011406
2017-05-01,135.28746940350135,133.74674630281464,90.40071215765902,140.39818855867898
2017-06-01,135.6134699856708,133.50378076313757,91.63154988861929,140.7813031409232
2017-07-01,135.84326254931972,133.17173084537683,92.69972141667516,141.07078538038212
2017-08-01,135.86104364860972,133.15297977574468,93.48204492519714,140.9788155261216
2017-09-01,136.1148932078689,133.2357881160973,94.17853112270244,141.2195737458246
2017-10-01,136.70367239166026,133.77749452408264,94.909926979149,141.79470406401288
2017-11-01,137.0649559744424,133.71466061861815,95.4501379396709,142.27711495162404
2017-12-01,136.77935644883672,133.6446042113728,91.73792959906567,142.4033864268977
2018-01-01,136.96537381636443,133.83811493226244,93.10220372625811,142.4045632057954
2018-02-01,136.87211691845312,133.9482975500471,92.94847454953252,142.2364590653302
2018-03-01,136.67349134914912,133.44168610856386,92.86368422842345,142.128209692545
2018-04-01,136.38615042472733,132.77328545781972,92.81776063697643,141.94141021864903
2018-05-01,136.18114515443003,132.5065194961983,91.86106631234848,141.8561517815519
2018-06-01,135.9817016892894,132.2728213081762,91.06072472644072,141.76232503872038
2018-07-01,135.6057370962389,131.8920332915948,90.36251883809322,141.44443090407285
2018-08-01,135.17768396382985,131.0147246127821,89.69084306547325,141.21716758912487
2018-09-01,134.83131988129745,130.75553115869087,88.88896764568017,140.94242186150487
2018-10-01,134.45109774356038,130.28279357894945,87.76819631894976,140.69850656520242
2018-11-01,134.33990143919266,129.92997918977542,87.58260611427404,140.6832259104452
2018-12-01,133.5870838122538,128.86693168733987,85.19408470779132,140.29125641534958
2019-01-01,133.8369794562763,128.526119655662,87.10442270303749,140.42979190104805
2019-02-01,133.5654465309757,128.22828133680085,87.15012414935995,140.1226609545784
2019-03-01,133.4159510740368,127.49211555154162,86.41277963126785,140.28987498137622
2019-04-01,132.85173255520203,126.83101007105363,85.87668836072956,139.76286119152536
2019-05-01,132.4148482818263,126.32232127335284,84.4594411780017,139.52315276895686
2019-06-01,132.25921745096093,126.24944179974254,83.6128035952664,139.4856361566918
2019-07-01,131.95205238228982,126.08420542832528,82.6914541452293,139.24510150353794
2019-08-01,131.7749331455877,125.82817071482698,81.22638847408888,139.32500511522437
2019-09-01,131.39082823506953,125.21180805348706,79.56930583694893,139.26781305816115
2019-10-01,130.9166721227462,124.335185858638,77.9835881471914,139.15560844984233
2019-11-01,130.73916149076334,123.90821329667769,76.75805767418247,139.27514455093112
2019-12-01,130.140609043598,123.88685303053822,72.8902929712525,139.12044308057222
2020-01-01,130.06350886047056,123.92474121630438,72.96046145648495,138.97625178855213
2020-02-01,130.09291166928023,124.10677315083416,71.57046055963353,139.2436743140759
2020-03-01,129.46615309165645,123.49884729216438,69.33084907961725,138.91712144151126
2020-04-01,128.66833475382901,122.90837336850262,67.84822967130435,138.1995436615339
2020-05-01,128.1249904880723,122.55092733104972,66.79684339902317,137.7112569857256
2020-06-01,128.03767379567665,122.4829589373866,66.0014013686651,137.7739298688308
2020-07-01,127.96160959807457,122.54311417630278,65.82717875190116,137.6831873473319
2020-08-01,127.87363410128957,122.59321350066209,66.2112348374937,137.45474333649824
2020-09-01,127.65015969890592,122.45265499761025,66.31503188675454,137.1462303860399
2020-10-01,127.58387873870097,122.88008998166255,66.32650265209593,136.90969871231863
2020-11-01,127.74153278356205,123.27058545304524,66.78694160229063,136.92265557262263
2020-12-01,127.51552458535355,122.70303639542689,66.38687208976742,136.8635221681154
2021-01-01,127.83907697617296,123.0221606658234,67.50807397234249,137.02217189183125
2021-02-01,127.88053740086266,122.90290169415579,68.85036690367626,136.84419597444463
2021-03-01,128.20342192163625,123.22263700562014,69.90163776989424,137.01061960180434
2021-04-01,128.11137387268872,123.38203542391167,69.56211793444149,136.88448349117493
2021-05-01,127.81191259543061,123.29393703201545,69.24468094149032,136.5220149134888
2021-06-01,127.70182900176023,123.10437407939207,69.842973147908,136.3117225287344
2021-07-01,127.76086175784373,123.29359359030538,70.8066166378867,136.16193739836038
2021-08-01,128.0761323772157,123.69554785580262,71.69963474081815,136.33620733361607
2021-09-01,128.39428314328947,124.07412824692027,72.26638608310915,136.58717401892227
2021-10-01,128.79383230293072,124.13543306081775,72.75565751234598,137.07509278863375
2021-11-01,129.30785816825423,124.41124776893732,72.86225328248432,137.72613897168782
2021-12-01,129.0750724283998,124.5720364437323,69.93390386343324,137.82542088005735
2022-01-01,129.52554269950508,124.80585998040858,71.8314776866159,138.08651334377464
2022-02-01,129.89042917986586,125.41010182084241,72.76239072897138,138.26952909929923
2022-03-01,130.26708738658536,125.88313386046872,72.74067522286512,138.6780612072573
2022-04-01,130.37256485844716,125.72592887151083,73.41675657607115,138.76711996100852
2022-05-01,130.5334923357818,126.26533944828721,73.75868291732958,138.78335443713297
2022-06-01,131.0099887016181,126.6735828519015,74.51203001892276,139.23097348786368
2022-07-01,131.08205822449526,126.69691188171097,73.79626429641917,139.45589171828647
2022-08-01,131.28829568432545,126.93182733796932,74.2755748985903,139.59672030678223
2022-09-01,131.49065190981221,127.00104032393092,74.56338877362475,139.82040056181825
2022-10-01,131.816225539245,127.25653468154295,75.1614676630021,140.10429622463158
2022-11-01,132.37395297467117,127.50970552444359,75.58411521203789,140.76155973249402
2022-12-01,131.95293236002672,127.2363336620438,73.03749935279474,140.70443144020962
2023-01-01,132.44261339679804,127.5262406569288,74.38590510404853,141.07095775242146
2023-02-01,132.66817962749195,127.92675585696273,75.137725978455,141.14092423781798
2023-03-01,132.85781722629824,128.0589988577632,75.3009800078838,141.3505066422433
2023-04-01,133.0619915958297,128.4245665465823,75.65826111520141,141.47312008485477
2023-05-01,133.25021382038665,128.74401217000712,75.36241452723291,141.71423697771266
2023-06-01,133.59119306428374,129.09268867250896,75.72095551924981,142.03631075117647
2023-07-01,133.95376113382542,129.33050085434115,76.41595413559303,142.33512677648153
2023-08-01,134.03840539010739,129.41054748321437,75.9902153617887,142.50228247649898
2023-09-01,134.089010251619,129.48238415390796,75.86327558624497,142.49039955928754
2023-10-01,134.098702000534,129.675411281701,74.4439703524203,142.817076905745
2023-11-01,134.034684534073,129.51483336709515,72.82705963011114,143.14317586171825
2023-12-01,133.40746671967,128.837342335949,69.1636857465329,143.24686644134
2024-01-01,133.209529764252,128.86942185299222,67.62302902724247,143.29796924238627
